Weather History for Grand Island, NE

Change the Weather History Date:

Wednesday, September 7, 2011

  Actual Average Record
Temperature  
Mean Temperature 66 °F 69 °F  
Max Temperature 80 °F 82 °F 104 °F (1947)
Min Temperature 51 °F 56 °F 37 °F (1898)
Degree Days  
Heating Degree Days 0 2  
Month to date heating degree days 17 8  
Since 1 July heating degree days 17 18  
Cooling Degree Days 1 5  
Month to date cooling degree days 28 42  
Year to date cooling degree days 1067 956  
Growing Degree Days 16 (Base 50)    
Moisture  
Dew Point 51 °F    
Average Humidity 64    
Maximum Humidity 89    
Minimum Humidity 38    
Precipitation  
Precipitation 0.00 in 0.07 in 1.64 in (1917)
Month to date precipitation 0.44 0.55  
Year to date precipitation 23.25 21.32  
Snow  
Snow 0.00 in 0.00 in - ()
Month to date snowfall 0.0 0.0  
Since 1 July snowfall 0.0 0.0  
Since 1 September snowfall 0.0 0.0  
Snow Depth 0.00 in    
Sea Level Pressure  
Sea Level Pressure 30.23 in    
Wind  
Wind Speed 8 mph (SSE)    
Max Wind Speed 18 mph    
Max Gust Speed -    
Visibility 10 miles    
Events      
T = Trace of Precipitation, MM = Missing Value Source: NWS Daily Summary

Daily Weather History Graph

Daily Weather History Graph

Search for Another Location

Airport:

Trip Planner

Search our weather history database for the weather conditions in past years. The results will help you decide how hot, cold, wet, or windy it might be!

Date:

Astronomy

Sep. 07, 2011 Rise Set
Actual Time 7:05 AM CDT 7:56 PM CDT
Civil Twilight 6:37 AM CDT 8:24 PM CDT
Nautical Twilight 6:04 AM CDT 8:57 PM CDT
Astronomical Twilight 5:30 AM CDT 9:31 PM CDT
Moon 5:16 PM CDT (9/7) 2:21 AM CDT (9/7)
Length of Visible Light 13h 46m
Length of Day
12h 50m
Waxing Gibbous, 80% of the Moon is Illuminated
Sep 7
Waxing Gibbous
Sep 12
Full
Sep 20
Last Quarter
Sep 27
New
Oct 3
First Quarter

Hourly Weather History & Observations

Time (CDT) Temp. Dew Point Humidity Pressure Visibility Wind Dir Wind Speed Gust Speed Precip Events Conditions
12:53 AM 59.0 °F 48.0 °F 67% 30.20 in 10.0 mi South 6.9 mph - N/A   Clear
1:53 AM 55.9 °F 48.0 °F 75% 30.20 in 10.0 mi South 8.1 mph - N/A   Clear
2:53 AM 55.0 °F 46.9 °F 74% 30.19 in 10.0 mi South 8.1 mph - N/A   Clear
3:53 AM 53.1 °F 46.9 °F 80% 30.19 in 10.0 mi South 6.9 mph - N/A   Clear
4:53 AM 53.1 °F 46.9 °F 80% 30.22 in 10.0 mi South 5.8 mph - N/A   Clear
5:53 AM 52.0 °F 46.9 °F 83% 30.24 in 10.0 mi Calm Calm - N/A   Clear
6:53 AM 52.0 °F 48.9 °F 89% 30.24 in 10.0 mi SE 3.5 mph - N/A   Clear
7:53 AM 54.0 °F 50.0 °F 86% 30.27 in 10.0 mi SW 6.9 mph - N/A   Clear
8:53 AM 59.0 °F 51.1 °F 75% 30.27 in 10.0 mi SW 4.6 mph - N/A   Clear
9:53 AM 66.0 °F 48.0 °F 52% 30.26 in 10.0 mi SW 12.7 mph - N/A   Clear
10:53 AM 66.2 °F 48.2 °F 52% 30.28 in 10.0 mi South 11.5 mph - N/A   Clear
11:53 AM 72.0 °F 48.9 °F 44% 30.25 in 10.0 mi South 11.5 mph - N/A   Clear
12:53 PM 75.2 °F 48.2 °F 38% 30.26 in 10.0 mi South 6.9 mph - N/A   Clear
1:53 PM 77.0 °F 51.1 °F 40% 30.22 in 10.0 mi South 6.9 mph - N/A   Clear
2:53 PM 78.1 °F 52.0 °F 40% 30.21 in 10.0 mi South 12.7 mph - N/A   Clear
3:53 PM 79.0 °F 51.1 °F 38% 30.21 in 10.0 mi SSE 11.5 mph - N/A   Clear
4:53 PM 79.0 °F 52.0 °F 39% 30.20 in 10.0 mi SSE 8.1 mph - N/A   Clear
5:53 PM 77.0 °F 53.1 °F 43% 30.20 in 10.0 mi SSE 8.1 mph - N/A   Clear
6:53 PM 75.0 °F 55.9 °F 51% 30.20 in 10.0 mi ESE 10.4 mph - N/A   Clear
7:53 PM 68.0 °F 57.0 °F 68% 30.21 in 10.0 mi ESE 6.9 mph - N/A   Clear
8:53 PM 64.0 °F 55.0 °F 73% 30.22 in 10.0 mi ESE 6.9 mph - N/A   Clear
9:53 PM 61.0 °F 53.1 °F 75% 30.25 in 10.0 mi ESE 5.8 mph - N/A   Clear
10:53 PM 60.8 °F 53.6 °F 77% 30.28 in 10.0 mi East 6.9 mph - N/A   Scattered Clouds
11:53 PM 59.0 °F 53.6 °F 82% 30.29 in 10.0 mi ESE 6.9 mph - N/A   Clear